Weather History for Buckhannon, WV

Change the Weather History Date:

Thursday, May 8, 2014

  Actual Average (KEKN) Record (KEKN)
Temperature  
Mean Temperature 70 °F 56 °F  
Max Temperature 82 °F 69 °F 86 °F (1979)
Min Temperature 59 °F 43 °F 23 °F (1974)
Degree Days  
Heating Degree Days 0 9  
Month to date heating degree days 82  
Since 1 July heating degree days 5645  
Cooling Degree Days 6 0  
Month to date cooling degree days 0  
Year to date cooling degree days 3  
Growing Degree Days 20 (Base 50)    
Moisture  
Dew Point 50 °F    
Average Humidity 46    
Maximum Humidity 67    
Minimum Humidity 34    
Precipitation  
Precipitation 0.00 in 0.16 in 1.50 in (1901)
Month to date precipitation 1.23  
Year to date precipitation 15.32  
Snow  
Snow 0.00 in - - ()
Month to date snowfall  
Since 1 September snowfall  
Snow Depth -    
Sea Level Pressure  
Sea Level Pressure 30.12 in    
Wind  
Wind Speed 6 mph (SW)    
Max Wind Speed 16 mph    
Max Gust Speed 30 mph    
Visibility 10 miles    
Events      
T = Trace of Precipitation, MM = Missing Value Source: NWS Daily Summary

Daily Weather History Graph

Daily Weather History Graph

Search for Another Location

Airport:

Trip Planner

Search our weather history database for the weather conditions in past years. The results will help you decide how hot, cold, wet, or windy it might be!

Date:

Astronomy

May. 08, 2014 Rise Set
Actual Time 6:15 AM EDT 8:20 PM EDT
Civil Twilight 5:45 AM EDT 8:50 PM EDT
Nautical Twilight 5:09 AM EDT 9:26 PM EDT
Astronomical Twilight 4:30 AM EDT 10:05 PM EDT
Moon 2:22 PM EDT (5/8) 2:42 AM EDT (5/8)
Length of Visible Light 15h 04m
Length of Day
14h 05m
Waxing Gibbous, 64% of the Moon is Illuminated
May 8
Waxing Gibbous
May 14
Full
May 21
Last Quarter
May 28
New
Jun 5
First Quarter

Hourly Weather History & Observations

Time (EDT) Temp. Heat Index Dew Point Humidity Pressure Visibility Wind Dir Wind Speed Gust Speed Precip Events Conditions
12:15 AM 64.4 °F - 42.8 °F 45% 30.06 in 10.0 mi SSW 5.8 mph - N/A   Clear
12:55 AM 64.4 °F - 42.8 °F 45% 30.06 in 10.0 mi Calm Calm - N/A   Clear
1:15 AM 66.2 °F - 42.8 °F 43% 30.07 in 10.0 mi Calm Calm - N/A   Clear
1:35 AM 66.2 °F - 44.6 °F 46% 30.06 in 10.0 mi Calm Calm - N/A   Clear
1:55 AM 64.4 °F - 44.6 °F 49% 30.06 in 10.0 mi South 4.6 mph - N/A   Clear
2:15 AM 64.4 °F - 46.4 °F 52% 30.06 in 10.0 mi South 4.6 mph - N/A   Clear
2:35 AM 64.4 °F - 46.4 °F 52% 30.06 in 10.0 mi South 4.6 mph - N/A   Clear
2:55 AM 64.4 °F - 48.2 °F 56% 30.07 in 10.0 mi Calm Calm - N/A   Clear
3:15 AM 62.6 °F - 46.4 °F 55% 30.08 in 10.0 mi Calm Calm - N/A   Clear
3:55 AM 62.6 °F - 48.2 °F 59% 30.09 in 10.0 mi Calm Calm - N/A   Clear
4:15 AM 62.6 °F - 48.2 °F 59% 30.10 in 10.0 mi Calm Calm - N/A   Clear
4:35 AM 62.6 °F - 48.2 °F 59% 30.11 in 10.0 mi Calm Calm - N/A   Clear
4:55 AM 62.6 °F - 48.2 °F 59% 30.11 in 10.0 mi Calm Calm - N/A   Clear
5:15 AM 60.8 °F - 48.2 °F 63% 30.12 in 10.0 mi SSW 5.8 mph - N/A   Clear
5:35 AM 59.0 °F - 48.2 °F 67% 30.13 in 10.0 mi SSW 6.9 mph - N/A   Clear
5:55 AM 60.8 °F - 48.2 °F 63% 30.13 in 10.0 mi SSW 6.9 mph - N/A   Clear
6:15 AM 62.6 °F - 46.4 °F 55% 30.14 in 10.0 mi SW 5.8 mph - N/A   Clear
6:35 AM 62.6 °F - 46.4 °F 55% 30.15 in 10.0 mi SW 5.8 mph - N/A   Clear
6:55 AM 60.8 °F - 46.4 °F 59% 30.16 in 10.0 mi SSW 5.8 mph - N/A   Clear
7:15 AM 62.6 °F - 46.4 °F 55% 30.16 in 10.0 mi SW 5.8 mph - N/A   Clear
7:35 AM 62.6 °F - 46.4 °F 55% 30.17 in 10.0 mi SSW 6.9 mph - N/A   Clear
7:55 AM 66.2 °F - 48.2 °F 52% 30.17 in 10.0 mi SW 5.8 mph - N/A   Clear
8:15 AM 66.2 °F - 50.0 °F 56% 30.18 in 10.0 mi SSW 6.9 mph - N/A   Clear
8:35 AM 69.8 °F - 50.0 °F 49% 30.18 in 10.0 mi SSW 5.8 mph - N/A   Clear
8:55 AM 71.6 °F - 48.2 °F 43% 30.18 in 10.0 mi SSW 9.2 mph - N/A   Clear
9:15 AM 73.4 °F - 48.2 °F 41% 30.19 in 10.0 mi SW 9.2 mph - N/A   Clear
9:35 AM 73.4 °F - 50.0 °F 44% 30.19 in 10.0 mi SW 13.8 mph 20.7 mph N/A   Clear
9:55 AM 73.4 °F - 51.8 °F 47% 30.19 in 10.0 mi SW 12.7 mph - N/A   Clear
10:15 AM 75.2 °F - 53.6 °F 47% 30.19 in 10.0 mi SW 15.0 mph 20.7 mph N/A   Clear
10:35 AM 75.2 °F - 53.6 °F 47% 30.19 in 10.0 mi WSW 12.7 mph 18.4 mph N/A   Partly Cloudy
10:55 AM 75.2 °F - 53.6 °F 47% 30.19 in 10.0 mi WSW 9.2 mph 19.6 mph N/A   Partly Cloudy
11:15 AM 75.2 °F - 53.6 °F 47% 30.19 in 10.0 mi West 16.1 mph 29.9 mph N/A   Scattered Clouds
11:35 AM 75.2 °F - 53.6 °F 47% 30.18 in 10.0 mi WSW 12.7 mph 20.7 mph N/A   Partly Cloudy
11:55 AM 78.8 °F - 55.4 °F 44% 30.18 in 10.0 mi WSW 15.0 mph 23.0 mph N/A   Partly Cloudy
12:15 PM 78.8 °F - 53.6 °F 42% 30.17 in 10.0 mi SW 13.8 mph 21.9 mph N/A   Partly Cloudy
12:35 PM 78.8 °F - 51.8 °F 39% 30.16 in 10.0 mi SW 16.1 mph 21.9 mph N/A   Clear
12:55 PM 78.8 °F - 51.8 °F 39% 30.15 in 10.0 mi SSW 16.1 mph 19.6 mph N/A   Clear
1:15 PM 80.6 °F - 51.8 °F 37% 30.15 in 10.0 mi SSW 15.0 mph 23.0 mph N/A   Clear
1:35 PM 78.8 °F - 51.8 °F 39% 30.14 in 10.0 mi SW 10.4 mph - N/A   Clear
1:55 PM 80.6 °F - 51.8 °F 37% 30.14 in 10.0 mi SW 15.0 mph 20.7 mph N/A   Clear
2:15 PM 80.6 °F - 51.8 °F 37% 30.14 in 10.0 mi SW 15.0 mph 20.7 mph N/A   Clear
2:35 PM 80.6 °F - 51.8 °F 37% 30.14 in 10.0 mi WSW 12.7 mph 23.0 mph N/A   Clear
2:55 PM 82.4 °F 81.4 °F 53.6 °F 37% 30.13 in 10.0 mi WSW 16.1 mph 21.9 mph N/A   Clear
3:15 PM 82.4 °F 81.4 °F 53.6 °F 37% 30.12 in 10.0 mi WSW 15.0 mph 19.6 mph N/A   Clear
3:35 PM 82.4 °F 81.4 °F 53.6 °F 37% 30.12 in 10.0 mi West 10.4 mph 19.6 mph N/A   Clear
3:55 PM 82.4 °F 81.4 °F 53.6 °F 37% 30.11 in 10.0 mi West 11.5 mph 18.4 mph N/A   Clear
4:15 PM 82.4 °F - 51.8 °F 35% 30.10 in 10.0 mi SW 13.8 mph 18.4 mph N/A   Clear
4:35 PM 82.4 °F 81.4 °F 53.6 °F 37% 30.10 in 10.0 mi WSW 9.2 mph - N/A   Clear
4:55 PM 82.4 °F 81.4 °F 53.6 °F 37% 30.09 in 10.0 mi WSW 11.5 mph - N/A   Clear
5:15 PM 82.4 °F - 51.8 °F 35% 30.09 in 10.0 mi WSW 16.1 mph - N/A   Clear
5:35 PM 82.4 °F - 51.8 °F 35% 30.09 in 10.0 mi SW 8.1 mph 19.6 mph N/A   Clear
5:55 PM 82.4 °F - 51.8 °F 35% 30.09 in 10.0 mi SW 10.4 mph - N/A   Clear
6:15 PM 82.4 °F - 51.8 °F 35% 30.09 in 10.0 mi West 8.1 mph - N/A   Clear
6:35 PM 82.4 °F - 51.8 °F 35% 30.09 in 10.0 mi WSW 8.1 mph - N/A   Clear
6:55 PM 82.4 °F - 51.8 °F 35% 30.09 in 10.0 mi WSW 9.2 mph - N/A   Clear
7:15 PM 80.6 °F - 50.0 °F 34% 30.09 in 10.0 mi SW 8.1 mph 16.1 mph N/A   Clear
7:35 PM 80.6 °F - 51.8 °F 37% 30.09 in 10.0 mi SW 10.4 mph - N/A   Clear
7:55 PM 78.8 °F - 50.0 °F 36% 30.09 in 10.0 mi SW 9.2 mph - N/A   Clear
8:15 PM 78.8 °F - 51.8 °F 39% 30.10 in 10.0 mi SW 5.8 mph - N/A   Clear
8:35 PM 78.8 °F - 50.0 °F 36% 30.10 in 10.0 mi SW 4.6 mph - N/A   Clear
8:55 PM 77.0 °F - 51.8 °F 41% 30.10 in 10.0 mi SW 4.6 mph - N/A   Clear
9:15 PM 75.2 °F - 51.8 °F 44% 30.10 in 10.0 mi Calm Calm - N/A   Clear
9:35 PM 73.4 °F - 51.8 °F 47% 30.10 in 10.0 mi Calm Calm - N/A   Clear
9:55 PM 73.4 °F - 51.8 °F 47% 30.12 in 10.0 mi Calm Calm - N/A   Clear
10:15 PM 73.4 °F - 51.8 °F 47% 30.13 in 10.0 mi Calm Calm - N/A   Clear
10:35 PM 71.6 °F - 51.8 °F 50% 30.13 in 10.0 mi Calm Calm - N/A   Clear
10:55 PM 71.6 °F - 51.8 °F 50% 30.14 in 10.0 mi Calm Calm - N/A   Clear
11:15 PM 69.8 °F - 51.8 °F 53% 30.13 in 10.0 mi Calm Calm - N/A   Clear
11:35 PM 66.2 °F - 53.6 °F 64% 30.14 in 10.0 mi Calm Calm - N/A   Clear
11:55 PM 66.2 °F - 53.6 °F 64% 30.14 in 10.0 mi Calm Calm - N/A   Clear